sat.trackr.live / text

‹ back to catalog

STARLINK-34112

NORAD 63969 · 2025-099T

PAYLOAD ACTIVE UNKNOWN

§ Identity

Operator
Country
US
Launch date
2025-05-13
Launch site
AFETR
Launch vehicle
Mass (kg)
RCS (m²)

Purposes: comms

External: N2YO · Heavens-Above · Gunter

§ Orbital elements

Epoch: 2026-05-24T08:40:32.355840Z

Period
94.27 min
Inclination
43.0016°
Eccentricity
0.0001212
Mean motion
15.27583888 rev/d
Perigee alt
482.2 km
Apogee alt
483.9 km
Semi-major
6,861.2 km
B*
3.4146e-4
RAAN
108.4855°
Arg perigee
272.8661°
Mean anomaly
87.2052°
Rev number
5,891

§ Raw data

STARLINK-341121 63969U 25099T   26144.36148560  .00009147  00000+0  34146-3 0  99992 63969  43.0016 108.4855 0001212 272.8661  87.2052 15.27583888 58910

JSON: /api/v1/satellites/63969 · /tle

For live sub-satellite position, see the globe view (requires WebGL).

§ Visibility from observer

Set your observer location to see the next 7 days of passes ≥ 10°. The values pass through the URL so the page stays shareable.

No JS? Fill the form by hand. The geolocation button needs JavaScript.